"startDT [UTC]","vpos","CH4 [ppm]","stdev(CH4) [ppm]","CO2 [ppm]","stdev(CO2) [ppm]","H2O_reported [%]","stdev(H2O_reported)","CavityPressure [torr]","CavityTemp [C]","OutletValve","CH4_dry [ppm]","CO2_dry [ppm]","DasTemp [C]","EtalonTemp [C]","WarmBoxTemp [C]","MPVPosition","T_ECpre [C]","T_EC1 [C]","T_EC2 [C]","p_inlet [hPa]","p_in [hPa]","p_out [hPa]","T_inlet [C]","RH_inlet [%]","dwpt_inlet [C]","T_vent [C]","RH_vent [%]","dwpt_vent [C]","flow_vent [l min-1]","flow_inlet [l min-1]","dwpt_sample [C]","T_room [C]"
2015-10-15 00:00:00,0.0,1.96019,0.00145,399.116,0.114,0.2967,0.0025,139.999,45.000,31754.12643,1.96580,400.547,36.375,45.068,45.000,0.00,0.09,-272.74,-272.80,-8,523,-946,21.1,9.0,-13.0,21.4,9.1,-12.7,5.73,1.89,-8.1,28.0
2015-10-15 00:01:00,0.0,1.95934,0.00135,399.040,0.101,0.2973,0.0029,140.000,45.000,31754.17565,1.96528,400.483,36.375,45.068,45.000,0.00,0.09,-272.75,-272.81,-7,523,-946,21.1,9.0,-13.0,21.4,9.1,-12.7,5.73,2.14,-8.2,28.0
2015-10-15 00:02:00,0.0,1.95903,0.00067,399.068,0.114,0.2967,0.0023,139.998,45.000,31754.07398,1.96484,400.506,36.369,45.068,45.000,0.00,0.09,-272.74,-272.81,-8,523,-946,21.1,9.0,-13.0,21.4,9.1,-12.7,5.73,1.86,-8.1,28.0
2015-10-15 00:03:00,0.0,1.95903,0.00055,399.027,0.100,0.2962,0.0025,139.997,45.000,31753.39975,1.96472,400.458,36.355,45.068,45.000,0.00,0.09,-272.74,-272.80,-9,523,-946,21.1,9.0,-13.0,21.4,9.1,-12.7,5.73,1.84,-8.1,28.0
2015-10-15 00:04:00,0.0,1.95932,0.00046,399.150,0.044,0.2931,0.0027,139.998,45.000,31752.93798,1.96502,400.568,36.331,45.068,45.000,0.00,0.09,-272.75,-272.81,-8,523,-946,21.1,8.9,-13.1,21.4,9.0,-12.8,5.73,2.13,-8.1,28.0
2015-10-15 00:05:00,0.0,1.95945,0.00049,399.187,0.061,0.2940,0.0025,139.998,45.000,31753.10872,1.96514,400.607,36.345,45.068,45.000,0.00,0.09,-272.75,-272.81,-7,523,-946,21.1,8.9,-13.1,21.4,9.0,-12.8,5.73,1.91,-8.1,28.0
2015-10-15 00:06:00,0.0,1.96003,0.00084,399.230,0.110,0.2944,0.0025,139.999,45.000,31752.10146,1.96573,400.653,36.365,45.068,45.000,0.00,0.09,-272.74,-272.80,-8,522,-946,21.1,8.9,-13.1,21.4,9.0,-12.8,5.73,1.80,-8.1,28.0
2015-10-15 00:07:00,0.0,1.96098,0.00038,399.381,0.050,0.2966,0.0024,140.000,45.000,31751.54025,1.96676,400.816,36.375,45.068,45.000,0.00,0.09,-272.76,-272.80,-9,523,-946,21.1,9.0,-13.0,21.4,9.0,-12.8,5.73,2.11,-8.1,27.9
2015-10-15 00:08:00,0.0,1.96065,0.00044,399.365,0.045,0.2942,0.0025,140.000,45.000,31751.00758,1.96638,400.790,36.372,45.068,45.000,0.00,0.09,-272.75,-272.81,-8,523,-946,21.1,8.9,-13.1,21.4,9.0,-12.8,5.73,1.98,-8.1,27.9
2015-10-15 00:09:00,0.0,1.96060,0.00069,399.384,0.071,0.2939,0.0023,140.001,45.000,31752.23358,1.96632,400.806,36.375,45.068,45.000,0.00,0.09,-272.74,-272.80,-7,523,-946,21.1,8.9,-13.1,21.4,9.0,-12.8,5.73,1.77,-8.1,27.9
2015-10-15 00:10:00,0.0,1.96050,0.00047,399.347,0.048,0.2924,0.0023,139.999,45.000,31751.81987,1.96618,400.764,36.375,45.068,45.000,0.00,0.09,-272.74,-272.80,-8,523,-946,21.1,8.9,-13.1,21.4,9.0,-12.9,5.73,2.06,-8.1,27.9
2015-10-15 00:11:00,0.0,1.96124,0.00046,399.471,0.044,0.2931,0.0031,140.000,45.000,31752.83775,1.96691,400.888,36.372,45.068,45.000,0.00,0.09,-272.75,-272.81,-9,523,-946,21.1,8.9,-13.1,21.4,8.9,-12.9,5.73,2.06,-8.2,27.9
2015-10-15 00:12:00,0.0,1.96136,0.00036,399.472,0.040,0.2949,0.0023,139.999,45.000,31752.40515,1.96712,400.898,36.374,45.068,45.000,0.00,0.09,-272.74,-272.80,-8,523,-946,21.1,8.9,-13.1,21.4,9.0,-12.8,5.73,1.77,-8.1,27.9
2015-10-15 00:13:00,0.0,1.96160,0.00038,399.556,0.031,0.2929,0.0026,139.999,45.000,31752.75076,1.96728,400.975,36.375,45.068,45.000,0.00,0.09,-272.75,-272.80,-7,523,-946,21.1,8.9,-13.1,21.4,9.0,-12.8,5.73,1.99,-8.1,27.9
2015-10-15 00:14:00,0.0,1.96165,0.00056,399.551,0.049,0.2956,0.0018,140.000,45.000,31753.14167,1.96741,400.981,36.375,45.068,45.000,0.00,0.09,-272.75,-272.81,-8,523,-946,21.1,9.0,-13.0,21.4,9.0,-12.8,5.73,2.10,-8.1,27.9
2015-10-15 00:15:00,0.0,1.96234,0.00065,399.577,0.052,0.2978,0.0019,140.000,45.000,31751.92633,1.96810,401.020,36.374,45.068,45.000,0.00,0.09,-272.75,-272.81,-9,523,-946,21.1,9.0,-12.9,21.4,9.1,-12.7,5.73,1.80,-8.2,27.9
2015-10-15 00:16:00,0.0,1.96248,0.00038,399.598,0.029,0.2972,0.0027,139.999,45.000,31752.35010,1.96827,401.036,36.368,45.068,45.000,0.00,0.09,-272.74,-272.80,-8,523,-946,21.1,9.0,-13.0,21.4,9.1,-12.7,5.73,1.92,-8.2,27.9
2015-10-15 00:17:00,0.0,1.96212,0.00040,399.580,0.032,0.2977,0.0016,140.000,45.000,31752.49862,1.96792,401.022,36.362,45.068,45.000,0.00,0.09,-272.75,-272.81,-7,523,-946,21.1,9.0,-13.0,21.4,9.1,-12.7,5.73,2.13,-8.2,27.9
2015-10-15 00:18:00,0.0,1.96202,0.00050,399.607,0.052,0.2949,0.0037,140.001,45.000,31751.25119,1.96780,401.038,36.342,45.068,45.000,0.00,0.09,-272.75,-272.81,-8,522,-946,21.1,9.0,-13.1,21.4,9.1,-12.7,5.73,1.85,-8.2,27.9
2015-10-15 00:19:00,0.0,1.96177,0.00046,399.592,0.044,0.2912,0.0015,139.999,45.000,31752.99764,1.96741,401.000,36.326,45.068,45.000,0.00,0.09,-272.74,-272.80,-9,523,-946,21.1,8.9,-13.2,21.4,8.9,-12.9,5.73,1.85,-8.1,27.9
2015-10-15 00:20:00,0.0,1.96225,0.00043,399.660,0.039,0.2945,0.0025,139.999,45.000,31754.05803,1.96797,401.087,36.315,45.068,45.000,0.00,0.09,-272.75,-272.80,-8,523,-946,21.1,8.9,-13.1,21.4,9.0,-12.8,5.73,2.14,-8.1,27.9
2015-10-15 00:21:00,0.0,1.96227,0.00025,399.678,0.030,0.2946,0.0022,139.998,45.000,31752.10646,1.96800,401.105,36.313,45.068,45.000,0.00,0.09,-272.75,-272.81,-7,523,-946,21.1,8.9,-13.1,21.4,9.0,-12.8,5.73,1.91,-8.1,27.9
2015-10-15 00:22:00,0.0,1.96270,0.00036,399.695,0.037,0.2935,0.0023,139.999,45.000,31750.54868,1.96843,401.117,36.311,45.068,45.000,0.00,0.09,-272.75,-272.81,-8,523,-946,21.1,8.9,-13.1,21.4,9.0,-12.8,5.73,1.80,-8.2,27.9
2015-10-15 00:23:00,0.0,1.96268,0.00030,399.762,0.063,0.2913,0.0023,139.999,45.000,31752.34358,1.96832,401.171,36.307,45.068,45.000,0.00,0.09,-272.75,-272.80,-9,523,-946,21.1,8.9,-13.2,21.4,8.9,-12.9,5.73,2.11,-8.1,27.9
2015-10-15 00:24:00,0.0,1.96213,0.00039,399.747,0.041,0.2908,0.0025,139.999,45.000,31754.58087,1.96783,401.158,36.302,45.068,45.000,0.00,0.09,-272.74,-272.81,-8,523,-946,21.1,8.9,-13.2,21.4,8.9,-12.9,5.73,1.99,-8.2,27.9
2015-10-15 00:25:00,0.0,1.96281,0.00056,399.811,0.019,0.2905,0.0024,139.997,45.000,31753.88928,1.96841,401.217,36.261,45.068,45.000,0.00,0.09,-272.74,-272.81,-7,523,-946,21.1,8.9,-13.2,21.4,8.9,-12.9,5.73,1.77,-8.2,27.9
2015-10-15 00:26:00,0.0,1.96366,0.00048,399.882,0.039,0.2935,0.0017,139.998,45.000,31752.81476,1.96939,401.304,36.250,45.068,45.000,0.00,0.09,-272.75,-272.80,-8,522,-946,21.1,8.9,-13.1,21.4,8.9,-12.9,5.73,2.06,-8.2,27.9
2015-10-15 00:27:00,0.0,1.96369,0.00047,399.926,0.044,0.2961,0.0033,139.999,45.000,31752.69929,1.96946,401.362,36.250,45.069,45.000,0.00,0.09,-272.74,-272.81,-9,523,-946,21.1,9.0,-13.0,21.4,9.0,-12.8,5.73,2.06,-8.1,27.9
2015-10-15 00:28:00,0.0,1.96289,0.00069,399.852,0.094,0.2942,0.0021,139.996,45.000,31752.32390,1.96866,401.280,36.239,45.068,45.000,0.00,0.09,-272.75,-272.81,-8,523,-946,21.1,8.9,-13.1,21.4,9.0,-12.8,5.73,1.77,-8.2,27.9
2015-10-15 00:29:00,0.0,1.96192,0.00034,399.749,0.045,0.2909,0.0016,140.001,45.000,31753.43502,1.96757,401.160,36.227,45.068,45.000,0.00,0.09,-272.75,-272.80,-7,523,-946,21.1,8.8,-13.2,21.4,8.9,-12.9,5.73,1.97,-8.1,27.9
2015-10-15 00:30:00,0.0,1.96212,0.00049,399.765,0.048,0.2918,0.0013,140.001,45.000,31755.12493,1.96779,401.176,36.240,45.068,45.000,0.00,0.09,-272.75,-272.80,-8,522,-946,21.1,8.8,-13.2,21.4,8.9,-12.9,5.73,2.12,-8.2,27.9
2015-10-15 00:31:00,0.0,1.96173,0.00054,399.758,0.040,0.2908,0.0020,139.999,45.000,31754.35657,1.96743,401.168,36.242,45.068,45.000,0.00,0.09,-272.75,-272.81,-9,523,-946,21.1,8.8,-13.2,21.4,8.9,-12.9,5.73,1.82,-8.1,27.9
2015-10-15 00:32:00,0.0,1.96154,0.00040,399.730,0.051,0.2902,0.0019,139.996,45.000,31751.47852,1.96718,401.137,36.247,45.068,45.000,0.00,0.09,-272.75,-272.80,-8,523,-946,21.1,8.8,-13.2,21.4,8.9,-13.0,5.73,1.88,-8.2,27.8
2015-10-15 00:33:00,0.0,1.96265,0.00041,399.849,0.053,0.2916,0.0024,140.000,45.000,31753.90949,1.96828,401.259,36.250,45.068,45.000,0.00,0.09,-272.75,-272.79,-7,523,-946,21.1,8.9,-13.2,21.4,8.9,-13.0,5.73,2.14,-8.1,27.9
2015-10-15 00:34:00,0.0,1.96224,0.00042,399.882,0.036,0.2953,0.0017,140.000,45.000,31755.29727,1.96801,401.313,36.250,45.068,45.000,0.00,0.09,-272.74,-272.81,-8,523,-946,21.1,8.9,-13.1,21.4,9.0,-12.8,5.73,1.89,-8.1,27.9
2015-10-15 00:35:00,0.0,1.96238,0.00051,399.862,0.062,0.2952,0.0020,139.999,45.000,31755.49119,1.96811,401.295,36.262,45.068,45.000,0.00,0.09,-272.75,-272.81,-9,523,-946,21.2,9.0,-13.0,21.4,9.0,-12.8,5.73,1.83,-8.1,28.0
2015-10-15 00:36:00,0.0,1.96205,0.00052,399.801,0.037,0.2917,0.0019,139.999,45.000,31752.32546,1.96772,401.214,36.260,45.068,45.000,0.00,0.09,-272.74,-272.80,-8,523,-946,21.1,8.9,-13.2,21.4,9.0,-12.8,5.73,2.12,-8.1,28.0
2015-10-15 00:37:00,0.0,1.96188,0.00046,399.790,0.053,0.2923,0.0015,139.999,45.000,31752.54519,1.96758,401.206,36.254,45.068,45.000,0.00,0.09,-272.74,-272.81,-7,523,-946,21.1,8.9,-13.2,21.4,8.9,-12.9,5.73,1.95,-8.1,28.0
2015-10-15 00:38:00,0.0,1.96150,0.00058,399.753,0.103,0.2945,0.0016,140.000,45.000,31754.45200,1.96726,401.183,36.279,45.068,45.000,0.00,0.09,-272.75,-272.81,-8,523,-946,21.1,8.9,-13.1,21.4,8.9,-12.9,5.73,1.78,-8.2,27.9
2015-10-15 00:39:00,0.0,1.96118,0.00037,399.741,0.031,0.2927,0.0015,139.997,45.000,31753.49892,1.96685,401.156,36.306,45.068,45.000,0.00,0.09,-272.75,-272.80,-9,523,-946,21.1,8.9,-13.2,21.4,9.0,-12.8,5.73,2.09,-8.1,27.9
2015-10-15 00:40:00,0.0,1.96207,0.00036,399.823,0.032,0.2950,0.0019,139.999,45.000,31753.85234,1.96781,401.252,36.287,45.068,45.000,0.00,0.09,-272.74,-272.80,-8,523,-946,21.2,8.9,-13.0,21.4,9.0,-12.8,5.73,2.01,-8.1,27.9
2015-10-15 00:41:00,0.0,1.96195,0.00043,399.818,0.042,0.2941,0.0018,139.998,45.000,31751.75039,1.96766,401.245,36.288,45.068,45.000,0.00,0.09,-272.75,-272.81,-7,523,-946,21.1,8.9,-13.1,21.4,9.0,-12.8,5.73,1.77,-8.2,27.9
2015-10-15 00:42:00,0.0,1.96220,0.00036,399.871,0.035,0.2947,0.0016,140.001,45.000,31753.07766,1.96791,401.296,36.279,45.068,45.000,0.00,0.09,-272.75,-272.81,-8,523,-946,21.1,8.9,-13.1,21.4,9.0,-12.8,5.73,2.03,-8.1,27.9
2015-10-15 00:43:00,0.0,1.96208,0.00046,399.822,0.089,0.2964,0.0018,139.997,45.000,31751.61112,1.96790,401.264,36.261,45.068,45.000,0.00,0.09,-272.75,-272.81,-9,523,-946,21.1,9.0,-13.0,21.4,9.0,-12.8,5.73,2.08,-8.1,27.9
2015-10-15 00:44:00,0.0,1.96221,0.00029,399.792,0.054,0.2969,0.0019,140.003,45.000,31752.31659,1.96797,401.229,36.261,45.068,45.000,0.00,0.09,-272.74,-272.81,-8,523,-946,21.1,9.0,-13.0,21.4,9.0,-12.7,5.73,1.78,-8.2,27.9
2015-10-15 00:45:00,0.0,1.96262,0.00043,399.813,0.047,0.2968,0.0014,139.999,45.000,31749.40120,1.96840,401.250,36.269,45.068,45.000,0.00,0.09,-272.76,-272.80,-7,523,-946,21.2,9.0,-12.9,21.4,9.1,-12.7,5.73,1.95,-8.1,27.9
2015-10-15 00:46:00,0.0,1.96252,0.00039,399.792,0.034,0.2979,0.0022,140.001,45.000,31750.54728,1.96833,401.234,36.302,45.068,45.000,0.00,0.09,-272.75,-272.80,-8,523,-946,21.1,9.0,-13.0,21.4,9.1,-12.7,5.73,2.13,-8.1,27.9
2015-10-15 00:47:00,0.0,1.96231,0.00054,399.802,0.062,0.2967,0.0019,139.999,45.000,31751.48135,1.96808,401.241,36.282,45.068,45.000,0.00,0.09,-272.75,-272.80,-9,523,-946,21.2,9.0,-13.0,21.4,9.0,-12.8,5.73,1.81,-8.1,27.9
2015-10-15 00:48:00,0.0,1.96283,0.00035,399.816,0.055,0.2973,0.0015,139.998,45.000,31751.69961,1.96859,401.256,36.302,45.068,45.000,0.00,0.09,-272.75,-272.80,-8,523,-946,21.2,9.1,-12.9,21.4,9.1,-12.7,5.73,1.89,-8.1,27.9
2015-10-15 00:49:00,0.0,1.96220,0.00058,399.607,0.095,0.2981,0.0015,140.003,45.000,31753.46002,1.96801,401.055,36.281,45.068,45.000,0.00,0.09,-272.75,-272.80,-7,523,-946,21.1,9.0,-12.9,21.4,9.1,-12.7,5.73,2.14,-8.1,27.9
2015-10-15 00:50:00,0.0,1.96312,0.00056,399.712,0.056,0.2964,0.0028,139.999,45.000,31751.78190,1.96886,401.145,36.288,45.068,45.000,0.00,0.09,-272.73,-272.81,-8,523,-946,21.1,9.0,-13.0,21.4,9.1,-12.7,5.73,1.87,-8.1,27.9
2015-10-15 00:51:00,0.0,1.96343,0.00045,399.757,0.064,0.2973,0.0020,140.001,45.000,31752.76055,1.96922,401.200,36.294,45.068,45.000,0.00,0.09,-272.75,-272.80,-9,523,-946,21.2,9.0,-12.9,21.4,9.0,-12.8,5.73,1.83,-8.1,27.8
2015-10-15 00:52:00,0.0,1.96331,0.00071,399.708,0.075,0.2984,0.0020,139.999,45.000,31753.14299,1.96918,401.158,36.292,45.068,45.000,0.00,0.09,-272.75,-272.81,-8,523,-946,21.1,9.0,-12.9,21.4,9.1,-12.6,5.73,2.13,-8.2,27.9
2015-10-15 00:53:00,0.0,1.96326,0.00094,399.633,0.127,0.2967,0.0018,139.999,45.000,31752.20801,1.96897,401.068,36.290,45.068,45.000,0.00,0.09,-272.73,-272.81,-7,523,-946,21.1,9.0,-13.0,21.4,9.1,-12.7,5.73,1.93,-8.1,27.9
2015-10-15 00:54:00,0.0,1.96339,0.00038,399.750,0.040,0.2971,0.0024,139.998,45.000,31754.06277,1.96917,401.187,36.282,45.068,45.000,0.00,0.09,-272.75,-272.81,-8,523,-946,21.1,9.0,-12.9,21.4,9.1,-12.7,5.73,1.79,-8.1,27.9
2015-10-15 00:55:00,0.0,1.96374,0.00027,399.750,0.034,0.2987,0.0020,139.999,45.000,31754.40852,1.96958,401.197,36.292,45.068,45.000,0.00,0.09,-272.76,-272.81,-9,523,-946,21.1,9.1,-12.9,21.4,9.1,-12.7,5.73,2.10,-8.1,27.9
2015-10-15 00:56:00,0.0,1.96417,0.00073,399.752,0.076,0.2982,0.0023,139.999,45.000,31752.31380,1.96995,401.197,36.291,45.068,45.000,0.00,0.09,-272.74,-272.81,-8,523,-946,21.1,9.0,-12.9,21.4,9.1,-12.7,5.73,1.99,-8.1,27.9
2015-10-15 00:57:00,0.0,1.96472,0.00043,399.841,0.037,0.3010,0.0026,139.999,45.000,31752.33597,1.97058,401.300,36.302,45.068,45.000,0.00,0.09,-272.74,-272.81,-7,523,-946,21.1,9.1,-12.8,21.4,9.1,-12.6,5.73,1.77,-8.1,27.9
2015-10-15 00:58:00,0.0,1.96463,0.00048,399.806,0.047,0.2991,0.0025,139.997,45.000,31753.00720,1.97044,401.257,36.313,45.068,45.000,0.00,0.09,-272.76,-272.81,-8,523,-946,21.1,9.0,-12.9,21.4,9.1,-12.6,5.73,2.05,-8.1,27.9
2015-10-15 00:59:00,0.0,1.96509,0.00042,399.793,0.057,0.2992,0.0016,140.003,45.000,31754.86789,1.97091,401.245,36.313,45.068,45.000,0.00,0.09,-272.75,-272.81,-9,523,-946,21.2,9.0,-12.9,21.4,9.1,-12.6,5.73,2.05,-8.1,27.9
2015-10-15 01:00:00,0.0,1.96504,0.00057,399.766,0.060,0.2983,0.0019,139.999,45.000,31753.47756,1.97087,401.211,36.315,45.068,45.000,0.00,0.09,-272.74,-272.80,-8,523,-946,21.2,9.0,-12.9,21.4,9.1,-12.6,5.73,1.76,-8.1,27.9
2015-10-15 01:01:00,0.0,1.96559,0.00046,399.804,0.043,0.3006,0.0022,139.999,45.000,31754.13083,1.97142,401.262,36.323,45.068,45.000,0.00,0.09,-272.75,-272.80,-8,523,-946,21.1,9.1,-12.9,21.4,9.1,-12.6,5.73,2.00,-8.1,28.0
2015-10-15 01:02:00,0.0,1.96602,0.00058,399.826,0.046,0.2988,0.0021,140.002,45.000,31754.25188,1.97186,401.274,36.320,45.068,45.000,0.00,0.09,-272.75,-272.81,-9,523,-946,21.2,9.1,-12.8,21.4,9.1,-12.6,5.73,2.10,-8.1,27.9
2015-10-15 01:03:00,0.0,1.96595,0.00069,399.850,0.049,0.2999,0.0017,139.998,45.000,31752.35635,1.97181,401.304,36.313,45.068,45.000,0.00,0.09,-272.74,-272.80,-8,523,-946,21.2,9.0,-12.9,21.4,9.1,-12.6,5.73,1.78,-8.1,27.9
2015-10-15 01:04:00,0.0,1.96633,0.00054,399.893,0.036,0.3009,0.0024,140.000,45.000,31754.77663,1.97219,401.350,36.314,45.068,45.000,0.00,0.09,-272.75,-272.80,-7,523,-946,21.1,9.1,-12.9,21.4,9.1,-12.6,5.73,1.94,-8.1,27.9
2015-10-15 01:05:00,0.0,1.96625,0.00039,399.851,0.078,0.3000,0.0017,140.000,45.000,31752.16033,1.97210,401.307,36.316,45.068,45.000,0.00,0.09,-272.75,-272.81,-8,523,-946,21.2,9.1,-12.8,21.5,9.2,-12.5,5.73,2.13,-8.1,28.0
2015-10-15 01:06:00,0.0,1.96659,0.00053,399.785,0.040,0.3044,0.0027,139.999,45.000,31753.60787,1.97254,401.261,36.319,45.068,45.000,0.00,0.09,-272.74,-272.81,-9,523,-946,21.2,9.2,-12.7,21.4,9.2,-12.5,5.73,1.80,-8.1,28.0
2015-10-15 01:07:00,0.0,1.96687,0.00047,399.880,0.071,0.3024,0.0022,140.001,45.000,31755.70875,1.97274,401.343,36.313,45.068,45.000,0.00,0.09,-272.74,-272.80,-8,523,-946,21.1,9.1,-12.8,21.4,9.2,-12.5,5.73,1.90,-8.1,28.0
2015-10-15 01:08:00,0.0,1.96669,0.00057,399.967,0.048,0.2991,0.0020,140.001,45.000,31752.99313,1.97250,401.416,36.314,45.068,45.000,0.00,0.09,-272.76,-272.81,-7,523,-946,21.2,9.0,-12.9,21.4,9.1,-12.5,5.73,2.14,-8.1,28.0
2015-10-15 01:09:00,0.0,1.96664,0.00083,399.922,0.122,0.3006,0.0015,139.997,45.000,31751.10303,1.97264,401.387,36.310,45.068,45.000,0.00,0.09,-272.75,-272.81,-8,523,-946,21.2,9.1,-12.8,21.4,9.2,-12.6,5.73,1.84,-8.1,28.0
2015-10-15 01:10:00,0.0,1.96644,0.00075,399.814,0.090,0.2992,0.0023,139.999,45.000,31750.74600,1.97217,401.261,36.312,45.068,45.000,0.00,0.09,-272.74,-272.80,-9,523,-946,21.1,9.0,-13.0,21.4,9.1,-12.6,5.73,1.86,-8.1,28.0
2015-10-15 01:11:00,0.0,1.96734,0.00050,399.910,0.057,0.2992,0.0023,140.000,45.000,31750.30845,1.97313,401.359,36.312,45.068,45.000,0.00,0.09,-272.75,-272.81,-8,523,-946,21.1,9.0,-12.9,21.4,9.1,-12.7,5.73,2.14,-8.1,27.9
2015-10-15 01:12:00,0.0,1.96747,0.00070,399.978,0.056,0.2975,0.0015,140.000,45.000,31752.32542,1.97329,401.419,36.312,45.068,45.000,0.00,0.09,-272.75,-272.81,-7,523,-946,21.2,9.0,-13.0,21.4,9.1,-12.6,5.73,1.88,-8.1,27.9
2015-10-15 01:13:00,0.0,1.96630,0.00102,399.894,0.140,0.2971,0.0025,139.999,45.001,31753.69052,1.97220,401.340,36.316,45.068,45.000,0.00,0.09,-272.74,-272.80,-8,523,-946,21.2,9.0,-13.0,21.4,9.1,-12.7,5.73,1.83,-8.1,27.9
2015-10-15 01:14:00,0.0,1.96505,0.00098,399.650,0.125,0.2973,0.0022,140.000,45.001,31754.09741,1.97088,401.095,36.320,45.068,45.000,0.00,0.09,-272.75,-272.80,-9,523,-946,21.2,9.0,-13.0,21.4,9.1,-12.7,5.73,2.13,-8.1,27.9
2015-10-15 01:15:00,0.0,1.96710,0.00067,399.961,0.114,0.2976,0.0025,140.001,45.001,31756.13878,1.97280,401.393,36.317,45.068,45.000,0.00,0.09,-272.75,-272.81,-8,523,-946,21.2,9.0,-13.0,21.4,9.0,-12.8,5.73,1.92,-8.1,27.9
2015-10-15 01:16:00,0.0,1.96664,0.00067,399.922,0.091,0.2986,0.0016,140.000,45.001,31756.60503,1.97250,401.370,36.324,45.068,45.000,0.00,0.09,-272.75,-272.81,-7,523,-946,21.2,9.0,-12.9,21.4,9.1,-12.6,5.73,1.79,-8.1,27.9
2015-10-15 01:17:00,0.0,1.96766,0.00051,400.026,0.037,0.3009,0.0021,139.999,45.000,31754.84139,1.97348,401.482,36.370,45.068,45.000,0.00,0.09,-272.75,-272.80,-8,523,-946,21.2,9.1,-12.8,21.4,9.1,-12.6,5.73,2.11,-8.1,27.9
2015-10-15 01:18:00,0.0,1.96750,0.00049,399.983,0.075,0.3054,0.0018,139.997,45.000,31756.36738,1.97350,401.468,36.375,45.068,45.000,0.00,0.09,-272.75,-272.81,-9,523,-946,21.2,9.2,-12.7,21.4,9.2,-12.4,5.73,1.98,-8.1,28.0
2015-10-15 01:19:00,0.0,1.96695,0.00054,399.888,0.083,0.3049,0.0024,140.000,45.000,31756.69352,1.97294,401.369,36.377,45.068,45.000,0.00,0.09,-272.74,-272.81,-8,523,-946,21.2,9.2,-12.6,21.4,9.3,-12.4,5.73,1.77,-8.1,27.9
2015-10-15 01:20:00,0.0,1.96670,0.00050,399.808,0.054,0.3033,0.0023,140.000,45.000,31758.11109,1.97260,401.275,36.376,45.068,45.000,0.00,0.09,-272.74,-272.80,-7,523,-946,21.2,9.2,-12.7,21.4,9.2,-12.4,5.73,2.08,-8.1,27.9
2015-10-15 01:21:00,0.0,1.96686,0.00052,399.914,0.067,0.2998,0.0027,139.999,45.000,31756.79713,1.97270,401.367,36.384,45.068,45.000,0.00,0.09,-272.74,-272.81,-8,523,-946,21.2,9.1,-12.8,21.4,9.1,-12.6,5.73,2.03,-8.1,27.9
2015-10-15 01:22:00,0.0,1.96758,0.00039,400.027,0.038,0.3031,0.0024,139.998,44.999,31755.50910,1.97348,401.496,36.377,45.068,45.000,0.00,0.09,-272.74,-272.81,-9,523,-946,21.1,9.1,-12.8,21.4,9.2,-12.5,5.73,1.76,-8.1,27.9
2015-10-15 01:23:00,0.0,1.96762,0.00044,400.014,0.048,0.3021,0.0022,139.997,44.999,31755.40561,1.97355,401.480,36.373,45.068,45.000,0.00,0.09,-272.75,-272.80,-8,523,-946,21.2,9.1,-12.8,21.4,9.2,-12.5,5.73,2.03,-8.1,28.0
2015-10-15 01:24:00,0.0,1.96699,0.00067,399.948,0.103,0.3011,0.0016,140.000,44.999,31756.52477,1.97285,401.410,36.367,45.068,45.000,0.00,0.09,-272.75,-272.81,-7,523,-946,21.2,9.1,-12.8,21.4,9.2,-12.5,5.73,2.08,-8.1,27.9
2015-10-15 01:25:00,0.0,1.96700,0.00041,399.858,0.040,0.3027,0.0017,139.998,44.999,31754.95016,1.97289,401.325,36.368,45.068,45.000,0.00,0.09,-272.75,-272.81,-9,523,-946,21.2,9.1,-12.8,21.4,9.2,-12.5,5.73,1.76,-8.1,28.0
2015-10-15 01:26:00,0.0,1.96725,0.00048,399.914,0.041,0.3063,0.0024,139.998,44.999,31756.80650,1.97324,401.400,36.351,45.068,45.000,0.00,0.09,-272.75,-272.80,-9,523,-946,21.2,9.2,-12.6,21.5,9.2,-12.4,5.73,1.98,-8.1,28.0
2015-10-15 01:27:00,0.0,1.96691,0.00054,399.813,0.053,0.3031,0.0022,140.000,44.999,31760.50317,1.97281,401.281,36.333,45.068,45.000,0.00,0.09,-272.74,-272.80,-7,523,-946,21.2,9.2,-12.7,21.5,9.2,-12.4,5.73,2.11,-8.1,27.9
2015-10-15 01:28:00,0.0,1.96726,0.00058,399.858,0.058,0.3053,0.0027,139.999,45.000,31759.25721,1.97326,401.342,36.325,45.068,45.000,0.00,0.09,-272.75,-272.81,-7,523,-946,21.2,9.2,-12.7,21.4,9.3,-12.4,5.73,1.79,-8.1,28.0
2015-10-15 01:29:00,0.0,1.96633,0.00049,399.690,0.099,0.3016,0.0025,139.999,45.000,31758.22641,1.97225,401.156,36.323,45.068,45.000,0.00,0.09,-272.75,-272.80,-9,523,-946,21.2,9.1,-12.8,21.5,9.2,-12.4,5.73,1.93,-8.1,27.9
2015-10-15 01:30:00,0.0,1.96678,0.00070,399.735,0.072,0.3018,0.0021,140.000,45.000,31758.11446,1.97263,401.195,36.359,45.068,45.000,0.00,0.09,-272.75,-272.80,-8,523,-946,21.1,9.1,-12.8,21.4,9.2,-12.5,5.73,2.13,-8.1,27.9
2015-10-15 01:31:00,0.0,1.96624,0.00049,399.674,0.053,0.3030,0.0023,140.001,45.000,31758.77206,1.97217,401.143,36.345,45.068,45.000,0.00,0.09,-272.74,-272.80,-7,523,-946,21.2,9.2,-12.7,21.4,9.2,-12.5,5.73,1.81,-8.1,28.0
2015-10-15 01:32:00,0.0,1.96566,0.00069,399.615,0.098,0.3040,0.0020,139.997,45.000,31756.79361,1.97162,401.090,36.355,45.068,45.000,0.00,0.09,-272.75,-272.80,-8,523,-946,21.2,9.2,-12.7,21.4,9.2,-12.5,5.73,1.90,-8.1,28.0
2015-10-15 01:33:00,0.0,1.96535,0.00064,399.522,0.093,0.3029,0.0028,140.002,45.000,31758.10862,1.97124,400.989,36.325,45.068,45.000,0.00,0.09,-272.75,-272.81,-9,523,-946,21.1,9.2,-12.7,21.5,9.2,-12.4,5.73,2.14,-8.1,28.0
2015-10-15 01:34:00,0.0,1.96610,0.00050,399.679,0.070,0.3037,0.0019,139.997,45.000,31755.99596,1.97204,401.149,36.318,45.068,45.000,0.00,0.09,-272.74,-272.81,-8,523,-946,21.1,9.2,-12.7,21.4,9.2,-12.5,5.73,1.83,-8.1,28.0
2015-10-15 01:35:00,0.0,1.96587,0.00055,399.600,0.068,0.3042,0.0022,139.997,45.000,31755.48880,1.97180,401.076,36.313,45.068,45.000,0.00,0.09,-272.75,-272.81,-7,523,-946,21.2,9.2,-12.7,21.4,9.3,-12.4,5.73,1.87,-8.1,28.0
2015-10-15 01:36:00,0.0,1.96640,0.00048,399.684,0.079,0.3036,0.0022,140.000,45.000,31753.99340,1.97229,401.152,36.313,45.068,45.000,0.00,0.09,-272.75,-272.81,-8,523,-946,21.1,9.2,-12.8,21.4,9.2,-12.5,5.73,2.14,-8.1,28.0
2015-10-15 01:37:00,0.0,1.96663,0.00077,399.739,0.092,0.3024,0.0025,139.998,45.000,31751.85717,1.97258,401.210,36.314,45.068,45.000,0.00,0.09,-272.74,-272.80,-9,523,-946,21.1,9.2,-12.8,21.4,9.2,-12.5,5.73,1.85,-8.1,28.0
2015-10-15 01:38:00,0.0,1.96579,0.00063,399.621,0.090,0.3014,0.0021,139.999,45.000,31754.01683,1.97165,401.079,36.323,45.068,45.000,0.00,0.09,-272.75,-272.80,-8,523,-946,21.1,9.1,-12.8,21.4,9.2,-12.5,5.73,1.85,-8.1,28.0
2015-10-15 01:39:00,0.0,1.96532,0.00055,399.512,0.046,0.3045,0.0020,140.001,45.000,31753.19124,1.97128,400.988,36.363,45.068,45.000,0.00,0.09,-272.76,-272.81,-7,523,-946,21.1,9.2,-12.8,21.4,9.2,-12.5,5.73,2.14,-8.1,27.9
2015-10-15 01:40:00,0.0,1.96433,0.00087,399.444,0.088,0.3008,0.0019,139.998,45.000,31752.41068,1.97025,400.905,36.365,45.068,45.000,0.00,0.09,-272.74,-272.80,-8,523,-946,21.1,9.1,-12.8,21.4,9.2,-12.5,5.73,1.90,-8.1,27.9
2015-10-15 01:41:00,0.0,1.96400,0.00042,399.343,0.075,0.3087,0.0026,140.000,45.000,31753.50257,1.97001,400.838,36.335,45.068,45.000,0.00,0.09,-272.74,-272.80,-9,523,-946,21.1,9.3,-12.6,21.4,9.2,-12.4,5.73,1.81,-8.1,27.9
2015-10-15 01:42:00,0.0,1.96372,0.00061,399.269,0.058,0.3038,0.0023,140.000,45.000,31752.67307,1.96964,400.742,36.322,45.068,45.000,0.00,0.09,-272.76,-272.81,-8,523,-946,21.1,9.2,-12.7,21.4,9.3,-12.4,5.73,2.12,-8.1,27.9
2015-10-15 01:43:00,0.0,1.96283,0.00052,399.279,0.047,0.2993,0.0031,139.998,45.000,31752.65199,1.96866,400.725,36.352,45.068,45.000,0.00,0.09,-272.74,-272.80,-7,523,-946,21.2,9.1,-12.8,21.4,9.2,-12.5,5.73,1.95,-8.1,27.9
2015-10-15 01:44:00,0.0,1.96377,0.00056,399.378,0.043,0.3009,0.0021,139.996,45.000,31750.33227,1.96965,400.835,36.353,45.068,45.000,0.00,0.09,-272.74,-272.79,-8,523,-946,21.1,9.1,-12.8,21.4,9.1,-12.6,5.73,1.78,-8.1,27.9
2015-10-15 01:45:00,0.0,1.96356,0.00039,399.371,0.027,0.3012,0.0021,140.001,45.000,31755.00493,1.96941,400.829,36.321,45.068,45.000,0.00,0.09,-272.75,-272.80,-8,523,-946,21.1,9.1,-12.9,21.4,9.2,-12.6,5.73,2.10,-8.1,27.9